KC7EHF Weather Reports


Display with metric or nautical units.
time (UTC)temp
F
wind
direction
speed
MPH
gust
MPH
rain 1hr
in
rain 24hr
in
rain mn
in
humidity
%
barometer
mb
20240527074010 80 109 0.0 0.0 0.00 0.00 0.00 94 1008.6
20240527073509 80 109 0.0 0.0 0.00 0.00 0.00 94 1008.6
20240527073010 80 109 0.0 0.0 0.00 0.00 0.00 94 1008.6
20240527072509 80 109 0.0 0.0 0.00 0.00 0.00 94 1008.6
20240527072008 81 109 0.0 0.0 0.00 0.00 0.00 94 1008.7
20240527071508 81 109 0.0 0.0 0.00 0.00 0.00 94 1008.7
20240527071007 81 109 0.0 0.0 0.00 0.00 0.00 94 1008.6
20240527070506 81 109 0.0 0.0 0.00 0.00 0.00 94 1008.7
20240527070006 81 109 0.0 0.0 0.00 0.00 0.00 94 1008.7
20240527065507 81 109 0.0 0.0 0.00 0.00 0.00 94 1008.7
20240527065006 81 109 0.0 0.0 0.00 0.00 0.00 94 1008.8
20240527064505 81 109 0.0 0.0 0.00 0.00 0.00 94 1008.8
20240527064004 81 109 0.0 0.0 0.00 0.00 0.00 94 1008.8
20240527063504 82 109 0.0 0.0 0.00 0.00 0.00 94 1008.7
20240527063004 82 109 0.0 0.0 0.00 0.00 0.00 94 1008.7
20240527062506 82 109 0.0 0.0 0.00 0.00 0.00 94 1008.6
20240527062003 82 109 0.0 0.0 0.00 0.00 0.00 94 1008.5
20240527061503 82 109 0.0 0.0 0.00 0.00 0.00 94 1008.4
20240527061003 82 109 0.0 0.0 0.00 0.00 0.00 94 1008.4
20240527060501 82 109 0.0 0.0 0.00 0.00 0.00 94 1008.4
20240527060100 82 109 0.0 0.0 0.00 0.00 0.00 94 1008.5
20240527055559 82 109 0.0 0.0 0.00 0.00 0.00 93 1008.6
20240527055058 82 109 0.0 0.0 0.00 0.00 0.00 93 1008.6
20240527054558 82 109 0.0 0.0 0.00 0.00 0.00 93 1008.7
20240527054058 82 109 0.0 0.0 0.00 0.00 0.00 93 1008.8
20240527053558 82 109 0.0 0.0 0.00 0.00 0.00 93 1008.8
20240527053057 82 109 0.0 0.0 0.00 0.00 0.00 93 1008.9
20240527052557 82 109 0.0 0.0 0.00 0.00 0.00 93 1008.9
20240527052057 82 109 0.0 0.0 0.00 0.00 0.00 93 1008.9
20240527051559 82 109 0.0 1.0 0.00 0.00 0.00 92 1008.9
20240527051056 82 109 0.0 1.0 0.00 0.00 0.00 92 1008.9
20240527050555 82 106 0.0 0.0 0.00 0.00 0.00 92 1008.9
20240527050100 82 106 0.0 0.0 0.00 0.00 0.00 92 1008.9
20240527045553 83 106 0.0 0.0 0.00 0.00 0.00 92 1008.9
20240527045056 83 106 0.0 0.0 0.00 0.00 0.00 92 1009.0
20240527044559 83 164 0.0 0.0 0.00 0.00 0.00 91 1009.1
20240527044054 83 164 0.0 0.0 0.00 0.00 0.00 91 1009.1
20240527043553 83 164 0.0 0.0 0.00 0.00 0.00 91 1009.1
20240527043054 83 164 0.0 0.0 0.00 0.00 0.00 91 1009.2
20240527042554 83 164 0.0 0.0 0.00 0.00 0.00 91 1009.3
20240527042053 83 164 0.0 0.0 0.00 0.00 0.00 91 1009.2
20240527041553 83 164 0.0 0.0 0.00 0.00 0.00 91 1009.2
20240527041053 83 164 0.0 0.0 0.00 0.00 0.00 90 1009.2
20240527040551 83 164 0.0 0.0 0.00 0.00 0.00 90 1009.2
20240527040052 83 164 0.0 0.0 0.00 0.00 0.00 90 1009.2
20240527035551 83 164 0.0 0.0 0.00 0.00 0.00 90 1009.2
20240527035052 83 164 0.0 0.0 0.00 0.00 0.00 90 1009.1
20240527034551 83 164 0.0 0.0 0.00 0.00 0.00 90 1009.0
20240527034051 83 164 0.0 0.0 0.00 0.00 0.00 90 1008.9
20240527033552 83 164 0.0 0.0 0.00 0.00 0.00 89 1008.8
20240527033057 83 164 0.0 1.0 0.00 0.00 0.00 89 1008.8
20240527032551 83 164 0.0 1.0 0.00 0.00 0.00 89 1008.8
20240527032050 83 164 0.0 1.0 0.00 0.00 0.00 89 1008.7
20240527031551 83 164 0.0 0.0 0.00 0.00 0.00 89 1008.6
20240527031050 83 164 0.0 0.0 0.00 0.00 0.00 89 1008.5
20240527030550 83 164 0.0 0.0 0.00 0.00 0.00 89 1008.4
20240527030050 83 164 0.0 0.0 0.00 0.00 0.00 89 1008.3
20240527025549 83 164 0.0 0.0 0.00 0.00 0.00 88 1008.3
20240527025050 83 164 0.0 1.0 0.00 0.00 0.00 88 1008.2
20240527024554 83 164 0.0 1.0 0.00 0.00 0.00 88 1008.0
20240527024049 83 158 0.0 0.0 0.00 0.00 0.00 88 1008.0
20240527023549 84 158 0.0 0.0 0.00 0.00 0.00 88 1007.8
20240527023049 84 159 0.0 1.0 0.00 0.00 0.00 87 1007.8
20240527022548 84 162 0.0 1.0 0.00 0.00 0.00 87 1007.9
20240527022049 84 162 0.0 1.0 0.00 0.00 0.00 87 1007.9
20240527021551 84 161 0.0 1.0 0.00 0.00 0.00 87 1007.9
20240527021051 84 161 0.0 1.0 0.00 0.00 0.00 87 1007.9
20240527020547 84 162 0.0 1.0 0.00 0.00 0.00 87 1007.8
20240527020047 84 160 0.0 1.0 0.00 0.00 0.00 86 1007.8
20240527015547 84 158 0.0 2.0 0.00 0.00 0.00 86 1007.8
20240527015048 84 196 0.0 0.0 0.00 0.00 0.00 86 1007.7
20240527014547 84 196 0.0 0.0 0.00 0.00 0.00 86 1007.8
20240527014049 84 196 0.0 1.0 0.00 0.00 0.00 85 1007.8
20240527013547 84 197 0.0 0.0 0.00 0.00 0.00 85 1007.8
20240527013047 85 197 0.0 0.0 0.00 0.00 0.00 85 1007.8
20240527012546 85 204 0.0 0.0 0.00 0.00 0.00 85 1007.8
20240527012049 85 204 0.0 1.0 0.00 0.00 0.00 84 1007.8
20240527011548 85 179 0.0 1.0 0.00 0.00 0.00 84 1007.7
20240527011048 85 180 0.0 2.0 0.00 0.00 0.00 84 1007.6
20240527010545 85 173 0.0 2.0 0.00 0.00 0.00 83 1007.6
20240527010056 85 161 0.0 2.0 0.00 0.00 0.00 83 1007.5
20240527005545 85 161 0.0 2.0 0.00 0.00 0.00 82 1007.4
20240527005045 85 163 0.0 2.0 0.00 0.00 0.00 82 1007.3
20240527004545 85 169 0.0 1.0 0.00 0.00 0.00 82 1007.2
20240527004044 86 169 0.0 1.0 0.00 0.00 0.00 82 1007.3
20240527003545 86 169 0.0 1.0 0.00 0.00 0.00 82 1007.1
20240527003044 86 169 0.0 3.0 0.00 0.00 0.00 81 1007.1
20240527002544 86 170 0.0 4.0 0.00 0.00 0.00 81 1007.1
20240527002044 86 163 0.0 2.0 0.00 0.00 0.00 81 1007.0
20240527001543 86 171 0.0 2.0 0.00 0.00 0.00 81 1007.1
20240527001047 86 177 0.0 2.0 0.00 0.00 0.00 80 1007.0
20240527000543 86 177 0.0 3.0 0.00 0.00 0.00 80 1007.0
20240527000045 86 144 0.0 3.0 0.00 0.00 0.00 80 1006.9
20240526235543 86 169 0.0 2.0 0.00 0.00 0.00 80 1007.0
20240526235042 86 164 0.0 2.0 0.00 0.00 0.00 79 1007.0
20240526234542 87 181 0.0 5.0 0.00 0.00 0.00 79 1007.1
20240526234045 87 167 0.0 5.0 0.00 0.00 0.00 78 1007.0
20240526233541 87 199 0.0 2.0 0.00 0.00 0.00 78 1007.0
20240526233042 87 184 0.0 3.0 0.00 0.00 0.00 78 1006.9
20240526232542 87 200 0.0 3.0 0.00 0.00 0.00 78 1007.0
20240526232042 87 167 0.0 3.0 0.00 0.00 0.00 78 1007.1
20240526231549 87 172 0.0 1.0 0.00 0.00 0.00 77 1007.0
20240526231041 88 194 0.0 1.0 0.00 0.00 0.00 77 1007.0
20240526230541 88 194 0.0 1.0 0.00 0.00 0.00 76 1007.0
20240526230042 88 192 0.0 2.0 0.00 0.00 0.00 77 1007.0
20240526225544 88 160 0.0 3.0 0.00 0.00 0.00 77 1006.9
20240526225042 88 161 1.0 4.0 0.00 0.00 0.00 76 1006.9
20240526224542 88 159 0.0 3.0 0.00 0.00 0.00 75 1007.0
20240526224040 88 167 0.0 4.0 0.00 0.00 0.00 76 1007.0
20240526223540 88 171 1.0 4.0 0.00 0.00 0.00 75 1006.9
20240526223040 89 158 1.0 5.0 0.00 0.00 0.00 75 1006.9
20240526222539 89 167 0.0 3.0 0.00 0.00 0.00 74 1006.9
20240526222039 89 194 0.0 4.0 0.00 0.00 0.00 75 1006.9
20240526221541 89 161 0.0 4.0 0.00 0.00 0.00 74 1006.9
20240526221039 89 158 0.0 5.0 0.00 0.00 0.00 75 1006.9
20240526220538 89 180 0.0 4.0 0.00 0.00 0.00 75 1006.9
20240526220038 89 190 0.0 5.0 0.00 0.00 0.00 75 1007.0
20240526215537 89 175 1.0 5.0 0.00 0.00 0.00 76 1007.0
20240526215039 89 157 0.0 5.0 0.00 0.00 0.00 76 1007.0
20240526214551 89 175 0.0 3.0 0.00 0.00 0.00 76 1007.0
20240526214037 90 231 0.0 3.0 0.00 0.00 0.00 76 1006.9
20240526213538 90 161 0.0 3.0 0.00 0.00 0.00 76 1006.9
20240526213037 90 167 0.0 4.0 0.00 0.00 0.00 76 1006.9
20240526212537 90 193 0.0 4.0 0.00 0.00 0.00 75 1007.0
20240526212037 90 182 1.0 4.0 0.00 0.00 0.00 75 1007.0
20240526211538 90 215 0.0 4.0 0.00 0.00 0.00 76 1007.0
20240526211037 90 166 0.0 4.0 0.00 0.00 0.00 75 1007.0
20240526210536 90 244 0.0 5.0 0.00 0.00 0.00 74 1007.1
20240526210036 91 173 1.0 5.0 0.00 0.00 0.00 75 1007.2
20240526205536 91 171 0.0 5.0 0.00 0.00 0.00 75 1007.3
20240526205036 91 169 0.0 5.0 0.00 0.00 0.00 75 1007.3
20240526204545 91 191 0.0 5.0 0.00 0.00 0.00 74 1007.4
20240526204005 91 231 0.0 5.0 0.00 0.00 0.00 74 1007.5
20240526203535 91 170 0.0 5.0 0.00 0.00 0.00 74 1007.5
20240526203035 91 153 0.0 4.0 0.00 0.00 0.00 73 1007.6
20240526202534 91 162 1.0 4.0 0.00 0.00 0.00 73 1007.7
20240526202034 91 171 0.0 3.0 0.00 0.00 0.00 74 1007.7
20240526201536 91 169 1.0 3.0 0.00 0.00 0.00 74 1007.7
20240526201034 92 166 0.0 5.0 0.00 0.00 0.00 74 1007.7
20240526200534 92 167 0.0 5.0 0.00 0.00 0.00 73 1007.8
20240526200033 92 171 0.0 5.0 0.00 0.00 0.00 72 1007.8
20240526195533 92 181 1.0 5.0 0.00 0.00 0.00 73 1007.9
20240526195033 92 191 0.0 5.0 0.00 0.00 0.00 72 1007.9
20240526194533 93 160 0.0 2.0 0.00 0.00 0.00 71 1008.0
20240526194033 93 169 0.0 3.0 0.00 0.00 0.00 71 1008.0
20240526193535 93 207 0.0 5.0 0.00 0.00 0.00 72 1008.1
20240526193035 93 172 0.0 5.0 0.00 0.00 0.00 70 1008.0
20240526192531 93 144 0.0 2.0 0.00 0.00 0.00 70 1008.2
20240526192033 94 163 0.0 2.0 0.00 0.00 0.00 71 1008.1
20240526191531 93 173 0.0 3.0 0.00 0.00 0.00 70 1008.1
20240526191035 93 159 0.0 3.0 0.00 0.00 0.00 70 1008.1
20240526190530 93 177 0.0 3.0 0.00 0.00 0.00 72 1008.2
20240526190030 93 163 0.0 3.0 0.00 0.00 0.00 72 1008.2
20240526185530 93 202 0.0 3.0 0.00 0.00 0.00 72 1008.3
20240526185029 93 180 0.0 2.0 0.00 0.00 0.00 71 1008.4
20240526184531 93 161 0.0 5.0 0.00 0.00 0.00 70 1008.5
20240526184029 94 209 0.0 2.0 0.00 0.00 0.00 68 1008.6
20240526183529 94 190 0.0 2.0 0.00 0.00 0.00 69 1008.5
20240526183029 94 193 0.0 2.0 0.00 0.00 0.00 71 1008.3
20240526182526 94 196 0.0 1.0 0.00 0.00 0.00 69 1008.3
20240526182026 94 161 0.0 1.0 0.00 0.00 0.00 69 1008.4
20240526181524 94 217 0.0 3.0 0.00 0.00 0.00 70 1008.3
20240526181021 94 182 0.0 3.0 0.00 0.00 0.00 72 1008.2
20240526180520 93 170 0.0 4.0 0.00 0.00 0.00 72 1008.2
20240526180019 93 227 0.0 4.0 0.00 0.00 0.00 71 1008.3
20240526175517 93 124 0.0 1.0 0.00 0.00 0.00 73 1008.5
20240526175016 93 172 0.0 1.0 0.00 0.00 0.00 72 1008.6
20240526174515 92 175 0.0 2.0 0.00 0.00 0.00 74 1008.6
20240526174014 93 170 0.0 1.0 0.00 0.00 0.00 72 1008.7
20240526173513 93 175 0.0 1.0 0.00 0.00 0.00 71 1008.9
20240526173012 93 205 0.0 1.0 0.00 0.00 0.00 72 1008.9
20240526172511 93 166 0.0 2.0 0.00 0.00 0.00 71 1008.9
20240526172012 93 165 0.0 0.0 0.00 0.00 0.00 70 1009.0
20240526171510 93 177 0.0 1.0 0.00 0.00 0.00 70 1009.2
20240526171008 93 180 0.0 0.0 0.00 0.00 0.00 73 1009.4
20240526170508 92 189 0.0 1.0 0.00 0.00 0.00 72 1009.3
20240526170006 92 186 0.0 1.0 0.00 0.00 0.00 73 1009.3
20240526165504 92 178 0.0 1.0 0.00 0.00 0.00 73 1009.4
20240526165003 92 181 0.0 1.0 0.00 0.00 0.00 74 1009.5
20240526164505 91 181 0.0 0.0 0.00 0.00 0.00 74 1009.4
20240526164001 91 199 0.0 0.0 0.00 0.00 0.00 74 1009.5
20240526163600 91 198 0.0 1.0 0.00 0.00 0.00 75 1009.5
20240526163108 90 201 0.0 1.0 0.00 0.00 0.00 75 1009.6
20240526162559 90 205 0.0 3.0 0.00 0.00 0.00 75 1009.5
20240526162102 90 159 0.0 1.0 0.00 0.00 0.00 76 1009.4
20240526161559 90 159 0.0 1.0 0.00 0.00 0.00 77 1009.4
20240526161058 90 159 0.0 3.0 0.00 0.00 0.00 75 1009.5
20240526160557 90 159 0.0 3.0 0.00 0.00 0.00 75 1009.6
20240526160105 90 159 0.0 1.0 0.00 0.00 0.00 75 1009.6
20240526155557 90 159 0.0 0.0 0.00 0.00 0.00 75 1009.7
20240526155101 91 159 0.0 0.0 0.00 0.00 0.00 74 1009.6
20240526154557 90 157 0.0 0.0 0.00 0.00 0.00 75 1009.5
20240526154056 90 157 0.0 2.0 0.00 0.00 0.00 77 1009.6
20240526153553 90 154 0.0 2.0 0.00 0.00 0.00 76 1009.6
20240526153054 90 204 0.0 1.0 0.00 0.00 0.00 76 1009.7
20240526152552 90 238 0.0 0.0 0.00 0.00 0.00 78 1009.7
20240526152052 90 259 0.0 0.0 0.00 0.00 0.00 78 1009.7
20240526151559 89 259 0.0 0.0 0.00 0.00 0.00 78 1009.8
20240526151050 89 260 0.0 0.0 0.00 0.00 0.00 77 1010.0
20240526150550 89 260 0.0 0.0 0.00 0.00 0.00 78 1010.0
20240526150059 89 260 0.0 0.0 0.00 0.00 0.00 79 1009.9
20240526145547 89 269 0.0 0.0 0.00 0.00 0.00 79 1010.0
20240526145047 88 269 0.0 0.0 0.00 0.00 0.00 80 1010.1
20240526144554 88 269 0.0 0.0 0.00 0.00 0.00 81 1010.1
20240526144043 87 271 0.0 0.0 0.00 0.00 0.00 83 1010.2
20240526143542 87 271 0.0 0.0 0.00 0.00 0.00 84 1010.1
20240526143041 86 271 0.0 0.0 0.00 0.00 0.00 85 1010.2
20240526142542 85 271 0.0 0.0 0.00 0.00 0.00 86 1010.2
20240526141522 85 271 0.0 0.0 0.00 0.00 0.00 86 1010.3
20240526141022 85 271 0.0 1.0 0.00 0.00 0.00 86 1010.2
20240526140520 85 263 0.0 1.0 0.00 0.00 0.00 85 1010.3
20240526140019 85 180 0.0 0.0 0.00 0.00 0.00 86 1010.3
20240526135517 85 180 0.0 0.0 0.00 0.00 0.00 87 1010.2
20240526135018 85 180 0.0 0.0 0.00 0.00 0.00 86 1009.7
20240526134527 85 180 0.0 0.0 0.00 0.00 0.00 86 1009.4
20240526134014 85 182 0.0 0.0 0.00 0.00 0.00 86 1009.1
20240526133513 85 182 0.0 1.0 0.00 0.00 0.00 87 1009.0
20240526133011 84 182 0.0 1.0 0.00 0.00 0.00 87 1008.7
20240526132511 84 183 0.0 1.0 0.00 0.00 0.00 88 1008.5
20240526132008 84 185 0.0 1.0 0.00 0.00 0.00 88 1008.3
20240526131508 83 165 0.0 0.0 0.00 0.00 0.00 89 1008.4
20240526131006 83 165 0.0 0.0 0.00 0.00 0.00 89 1008.5
20240526130505 83 165 0.0 0.0 0.00 0.00 0.00 89 1008.4
20240526130005 83 165 0.0 0.0 0.00 0.00 0.00 89 1008.3
20240526125503 82 164 0.0 1.0 0.00 0.00 0.00 90 1008.2
20240526125003 82 164 0.0 1.0 0.00 0.00 0.00 90 1007.9
20240526124504 82 164 0.0 0.0 0.00 0.00 0.00 90 1007.9
20240526124002 82 164 0.0 2.0 0.00 0.00 0.00 90 1007.8
20240526123501 81 163 0.0 2.0 0.00 0.00 0.00 90 1007.7
20240526123003 81 173 0.0 1.0 0.00 0.00 0.00 90 1007.6
20240526122602 81 177 0.0 0.0 0.00 0.00 0.00 90 1007.7
20240526122100 81 177 0.0 1.0 0.00 0.00 0.00 90 1007.7
20240526121602 81 177 0.0 1.0 0.00 0.00 0.00 90 1007.6
20240526121059 81 173 0.0 0.0 0.00 0.00 0.00 90 1007.4
20240526120601 81 175 0.0 0.0 0.00 0.00 0.00 90 1007.3
20240526120057 81 175 0.0 0.0 0.00 0.00 0.00 90 1007.2
20240526115557 81 175 0.0 1.0 0.00 0.00 0.00 90 1007.2
20240526115100 81 172 0.0 1.0 0.00 0.00 0.00 90 1007.1
20240526114555 81 169 0.0 0.0 0.00 0.00 0.00 90 1007.1
20240526114056 81 170 0.0 1.0 0.00 0.00 0.00 90 1007.2
20240526113554 81 248 0.0 1.0 0.00 0.00 0.00 91 1007.2
20240526113104 81 185 0.0 1.0 0.00 0.00 0.00 91 1006.9
20240526112553 81 155 0.0 1.0 0.00 0.00 0.00 91 1006.8
20240526112053 81 194 0.0 0.0 0.00 0.00 0.00 91 1006.8
20240526111558 81 190 0.0 0.0 0.00 0.00 0.00 91 1006.8
20240526111053 81 177 0.0 0.0 0.00 0.00 0.00 91 1006.9
20240526110552 81 176 0.0 0.0 0.00 0.00 0.00 91 1006.9
20240526110055 81 176 0.0 0.0 0.00 0.00 0.00 91 1006.8
20240526105552 81 175 0.0 0.0 0.00 0.00 0.00 91 1006.8
20240526105053 81 175 0.0 1.0 0.00 0.00 0.00 91 1006.8
20240526104553 81 175 0.0 1.0 0.00 0.00 0.00 91 1006.8
20240526104051 81 214 0.0 2.0 0.00 0.00 0.00 91 1006.7
20240526103552 81 214 0.0 2.0 0.00 0.00 0.00 91 1006.7
20240526103051 81 187 0.0 1.0 0.00 0.00 0.00 91 1006.7
20240526102551 81 188 0.0 1.0 0.00 0.00 0.00 91 1006.8
20240526102051 81 182 0.0 3.0 0.00 0.00 0.00 92 1006.8
20240526101552 81 169 0.0 3.0 0.00 0.00 0.00 91 1006.7
20240526101050 81 161 0.0 1.0 0.00 0.00 0.00 91 1006.6
20240526100550 82 180 0.0 1.0 0.00 0.00 0.00 91 1006.5
20240526100049 82 174 0.0 2.0 0.00 0.00 0.00 91 1006.5
20240526095548 82 165 0.0 2.0 0.00 0.00 0.00 91 1006.5
20240526095052 82 167 0.0 3.0 0.00 0.00 0.00 91 1006.4
20240526094549 82 173 0.0 2.0 0.00 0.00 0.00 91 1006.3
20240526094048 82 150 0.0 1.0 0.00 0.00 0.00 91 1006.4
20240526093546 82 150 0.0 1.0 0.00 0.00 0.00 91 1006.4
20240526093047 82 148 0.0 1.0 0.00 0.00 0.00 91 1006.6
20240526092548 82 138 0.0 5.0 0.00 0.00 0.00 91 1006.7
20240526092045 82 218 0.0 5.0 0.00 0.00 0.00 90 1006.5
20240526091600 82 156 0.0 1.0 0.00 0.00 0.00 90 1006.7
20240526091044 82 184 0.0 1.0 0.00 0.00 0.00 90 1006.8
20240526090544 82 167 0.0 2.0 0.00 0.00 0.00 90 1006.7
20240526090044 82 167 0.0 2.0 0.00 0.00 0.00 90 1006.7
20240526085544 82 187 0.0 1.0 0.00 0.00 0.00 90 1006.7
20240526085043 82 173 0.0 0.0 0.00 0.00 0.00 90 1006.8
20240526084557 82 186 0.0 2.0 0.00 0.00 0.00 90 1006.9
20240526084043 82 187 0.0 2.0 0.00 0.00 0.00 90 1006.9
20240526083542 82 184 0.0 3.0 0.00 0.00 0.00 90 1006.9
20240526083042 82 294 0.0 4.0 0.00 0.00 0.00 90 1007.0
20240526082542 82 171 0.0 4.0 0.00 0.00 0.00 90 1007.0
20240526082044 82 161 0.0 5.0 0.00 0.00 0.00 90 1007.0
20240526081548 82 164 0.0 3.0 0.00 0.00 0.00 90 1007.1
20240526081142 82 180 0.0 2.0 0.00 0.00 0.00 90 1007.2
20240526080543 82 172 0.0 2.0 0.00 0.00 0.00 90 1007.2
20240526080048 82 181 0.0 2.0 0.00 0.00 0.00 90 1007.1
20240526075541 82 167 0.0 2.0 0.00 0.00 0.00 90 1007.0
20240526075040 82 164 0.0 2.0 0.00 0.00 0.00 90 1007.0
20240526074541 82 155 0.0 2.0 0.00 0.00 0.00 89 1007.0